Retour au catalogue

STARLINK-33678

ActifCommunicationsVLEO
NORAD 63509·PAYLOAD·🇺🇸 United States

Lancé Apr 7, 2025 depuis Vandenberg Space Force Base

Loading…

Prochains Passages (prochaines 24 heures)

TLE

FraisSource: CelesTrak SupGP

Époque: Sep 15, 2026, 03:06 UTC

1 63509C 25071S   26258.12965278  .00066246  00000+0  21295-2 0  2583
2 63509  53.1581 338.4780 0001163  95.4929 307.6246 15.31680673    19

Suivez STARLINK-33678 en temps réel avec AllMySat

Download on the App Store